Etusivu
METAR-TAF:

METAR-TAF

Lentoasemat :

La Grande/Union County Airport

La Grande, Oregon, Yhdysvallat

Leveyspiiri: 45-17N, Pituuspiiri: 118-00W, korkeus merenpinnasta: 827 m

Tämänhetkinen sää

Tämä raportti tehtiin 51 minuuttia sitten, kello 11.56 UTC
Tuuli 6 kn pohjoisesta
Lämpötila -5°C
Kosteus 79%
Ilmanpaine 1023 hPa
Näkyvyys: 16.1 km
selkeää

METAR: KLGD 111156Z AUTO 36006KT 10SM CLR M05/M08 A3022 RMK AO2 SLP255 6//// 7//// T10501083 10006 21050 52004 FZRANO PNO $

Aika: 05:47 (12:47 UTC)


TAF: puuttuu

Säähavainnot ja -ennusteet yli 4000 lentoasemalta (METAR- ja TAF-raportit).

Käytössä olevat sääasemat on merkitty karttaan keltaisilla ja punaisilla pisteillä.

Aseta hiiri pisteen päälle nähdäksesi sääaseman nimen.

Klikkaa sitten nähdäksesi säähavainnot ja -ennusteet.

Kartan vaihtaminen: klikkaa mustalla rastilla varustettuja vihreitä pisteitä, niin voit zoomata sisään; viivalla varustettua vihreää pistettä, niin voit zoomata ulos tai vihreitä nuolia, niin pääset viereisille kartoille.


METAR-TAF: